CW8896 Weather Reports


Display with metric or nautical units.
time (UTC)temp
F
wind
direction
speed
MPH
gust
MPH
rain 1hr
in
rain 24hr
in
rain mn
in
humidity
%
barometer
mb
20260507192003 60 194 0.0 1.0 0.00 0.00 0.00 75 1011.2
20260507190005 61 0 0.0 0.0 0.00 0.00 0.00 73 1010.9
20260507185004 62 0 0.0 0.0 0.00 0.00 0.00 72 1010.9
20260507184003 63 165 0.0 1.0 0.00 0.00 0.00 70 1010.8
20260507183005 64 228 0.0 2.0 0.00 0.00 0.00 67 1010.9
20260507182004 64 193 0.0 2.0 0.00 0.00 0.00 67 1010.8
20260507181004 64 217 1.0 4.0 0.00 0.00 0.00 67 1010.7
20260507180005 64 204 1.0 4.0 0.00 0.00 0.00 67 1010.8
20260507174004 65 197 1.0 5.0 0.00 0.00 0.00 66 1010.6
20260507173004 65 192 1.0 6.0 0.00 0.00 0.00 65 1010.5
20260507172004 65 212 1.0 6.0 0.00 0.00 0.00 64 1010.5
20260507171004 66 191 1.0 4.0 0.00 0.00 0.00 64 1010.5
20260507170004 67 183 2.0 6.0 0.00 0.00 0.00 62 1010.5
20260507165004 69 176 1.0 6.0 0.00 0.00 0.00 61 1010.5
20260507164004 69 158 1.0 7.0 0.00 0.00 0.00 63 1010.5
20260507163005 69 193 1.0 6.0 0.00 0.00 0.00 62 1010.7
20260507162003 69 139 1.0 7.0 0.00 0.00 0.00 62 1010.5
20260507161004 69 188 1.0 5.0 0.00 0.00 0.00 58 1010.5
20260507155004 70 103 1.0 7.0 0.00 0.00 0.00 56 1010.4
20260507154004 71 148 1.0 6.0 0.00 0.00 0.00 55 1010.5
20260507153004 72 176 1.0 6.0 0.00 0.00 0.00 54 1010.4
20260507152003 72 156 1.0 5.0 0.00 0.00 0.00 55 1010.5
20260507150005 71 188 2.0 7.0 0.00 0.00 0.00 54 1010.6
20260507143004 71 128 1.0 5.0 0.00 0.00 0.00 54 1010.9
20260507142003 71 164 1.0 5.0 0.00 0.00 0.00 54 1010.8
20260507140004 71 179 2.0 8.0 0.00 0.00 0.00 55 1011.0
20260507134004 70 179 2.0 5.0 0.00 0.00 0.00 56 1011.4
20260507133004 70 163 2.0 6.0 0.00 0.00 0.00 56 1011.4
20260507131003 69 101 1.0 4.0 0.00 0.00 0.00 57 1011.6
20260507130005 70 155 1.0 6.0 0.00 0.00 0.00 57 1011.6
20260507125004 71 133 2.0 6.0 0.00 0.00 0.00 56 1011.5
20260507124003 71 173 2.0 6.0 0.00 0.00 0.00 58 1011.7
20260507122004 70 200 2.0 8.0 0.00 0.00 0.00 58 1011.8
20260507121003 71 192 2.0 6.0 0.00 0.00 0.00 60 1011.9
20260507115004 70 194 2.0 8.0 0.00 0.00 0.00 60 1011.8
20260507114003 70 172 2.0 6.0 0.00 0.00 0.00 59 1011.9
20260507113005 68 199 1.0 5.0 0.00 0.00 0.00 63 1012.0
20260507111004 68 114 1.0 3.0 0.00 0.00 0.00 58 1012.0
20260507110004 68 168 1.0 4.0 0.00 0.00 0.00 57 1012.2
20260507105005 67 216 1.0 6.0 0.00 0.00 0.00 58 1012.2
20260507103005 69 121 1.0 4.0 0.00 0.00 0.00 53 1012.2
20260507102003 67 70 1.0 4.0 0.00 0.00 0.00 54 1012.3
20260507101004 66 49 1.0 3.0 0.00 0.00 0.00 58 1012.5
20260507100004 67 29 1.0 5.0 0.00 0.00 0.00 58 1012.6
20260507095004 67 72 1.0 5.0 0.00 0.00 0.00 58 1012.5
20260507094004 68 72 2.0 7.0 0.00 0.00 0.00 57 1012.6
20260507090005 65 39 1.0 5.0 0.00 0.00 0.00 61 1012.5
20260507085003 64 62 2.0 8.0 0.00 0.00 0.00 63 1012.5
20260507084004 64 72 1.0 4.0 0.00 0.00 0.00 65 1012.3
20260507082004 64 60 1.0 5.0 0.00 0.00 0.00 65 1012.4
20260507081004 63 64 2.0 7.0 0.00 0.00 0.00 66 1012.4
20260507074004 62 77 1.0 4.0 0.00 0.00 0.00 67 1012.4
20260507073005 63 131 0.0 2.0 0.00 0.00 0.00 66 1012.4
20260507072004 62 72 0.0 2.0 0.00 0.00 0.00 69 1012.4
20260507071004 61 68 0.0 2.0 0.00 0.00 0.00 70 1012.3
20260507070009 60 56 1.0 3.0 0.00 0.00 0.00 71 1012.4
20260507065006 61 60 0.0 2.0 0.00 0.00 0.00 71 1012.4
20260507064004 60 58 0.0 2.0 0.00 0.00 0.00 74 1012.3
20260507063004 59 56 0.0 2.0 0.00 0.00 0.00 76 1012.3
20260507062004 57 346 0.0 1.0 0.00 0.00 0.00 79 1012.3
20260507061004 56 327 0.0 1.0 0.00 0.00 0.00 81 1012.3
20260507060004 55 26 0.0 1.0 0.00 0.00 0.00 82 1012.3
20260507054004 52 298 0.0 2.0 0.00 0.00 0.00 86 1012.1
20260507052004 50 0 0.0 0.0 0.00 0.00 0.00 90 1011.9
20260507050005 48 0 0.0 0.0 0.00 0.00 0.00 91 1011.9
20260507045004 48 0 0.0 0.0 0.00 0.00 0.00 91 1011.8
20260507044003 48 0 0.0 0.0 0.00 0.00 0.00 91 1011.7
20260507042004 49 0 0.0 0.0 0.00 0.00 0.00 90 1011.6
20260507040004 49 0 0.0 0.0 0.00 0.00 0.00 89 1011.7
20260507035004 50 0 0.0 0.0 0.00 0.00 0.00 88 1011.7
20260507034004 50 329 0.0 1.0 0.00 0.00 0.00 88 1011.5
20260507033004 51 329 0.0 1.0 0.00 0.00 0.00 88 1011.6
20260507032003 51 0 0.0 0.0 0.00 0.00 0.00 86 1011.6
20260507031004 52 0 0.0 0.0 0.00 0.00 0.00 85 1011.5
20260507030004 52 0 0.0 0.0 0.00 0.00 0.00 84 1011.6
20260507025004 53 312 0.0 2.0 0.00 0.00 0.00 83 1011.4
20260507024003 53 316 0.0 2.0 0.00 0.00 0.00 82 1011.4
20260507023005 53 329 0.0 1.0 0.00 0.00 0.00 82 1011.3
20260507022004 53 330 0.0 2.0 0.00 0.00 0.00 83 1011.4
20260507021004 53 0 0.0 0.0 0.00 0.00 0.00 83 1011.4
20260507020004 53 336 0.0 1.0 0.00 0.00 0.00 82 1011.4
20260507015004 54 311 0.0 1.0 0.00 0.00 0.00 81 1011.4
20260507014004 54 304 0.0 3.0 0.00 0.00 0.00 82 1011.5
20260507013004 54 311 0.0 2.0 0.00 0.00 0.00 82 1011.3
20260507012004 53 306 0.0 2.0 0.00 0.00 0.00 84 1011.4
20260507011003 53 354 0.0 1.0 0.00 0.00 0.00 84 1011.8
20260507005004 53 94 0.0 1.0 0.00 0.00 0.00 84 1011.6
20260507004005 53 321 0.0 2.0 0.00 0.00 0.00 83 1011.7
20260507003004 54 349 0.0 4.0 0.00 0.00 0.00 82 1011.8
20260507002004 54 312 0.0 4.0 0.00 0.00 0.00 81 1011.9
20260507001003 53 301 0.0 2.0 0.00 0.00 0.00 82 1011.8
20260507000004 54 289 0.0 2.0 0.00 0.00 0.00 82 1012.0
20260506235003 54 307 0.0 1.0 0.00 0.00 0.00 82 1012.1
20260506234004 54 335 0.0 1.0 0.00 0.00 0.00 81 1012.1
20260506233005 54 310 0.0 3.0 0.00 0.00 0.00 80 1012.1
20260506232003 55 319 0.0 4.0 0.00 0.00 0.00 80 1012.1
20260506231004 55 311 0.0 5.0 0.00 0.00 0.00 79 1012.2
20260506230004 55 306 0.0 3.0 0.00 0.00 0.00 79 1012.0
20260506225004 55 324 0.0 3.0 0.00 0.01 0.00 78 1011.9
20260506224004 55 315 0.0 3.0 0.00 0.01 0.00 78 1011.8
20260506223004 56 308 1.0 4.0 0.00 0.02 0.00 77 1011.8
20260506222004 56 306 1.0 4.0 0.00 0.03 0.00 76 1011.7
20260506221004 56 312 0.0 4.0 0.00 0.06 0.00 76 1011.7
20260506220008 56 310 0.0 3.0 0.00 0.10 0.00 76 1011.6
20260506215003 56 261 0.0 1.0 0.00 0.13 0.10 77 1011.5
20260506212004 57 0 0.0 0.0 0.00 0.18 0.10 75 1011.6
20260506211004 57 295 0.0 1.0 0.00 0.19 0.10 74 1011.6
20260506210004 57 288 0.0 1.0 0.00 0.19 0.10 73 1011.6
20260506205004 58 319 0.0 4.0 0.00 0.20 0.10 72 1011.6
20260506204004 58 294 0.0 1.0 0.00 0.20 0.10 73 1011.6
20260506202003 58 287 0.0 1.0 0.00 0.22 0.10 71 1011.4
20260506201004 58 325 0.0 2.0 0.00 0.23 0.10 70 1011.4
20260506200004 58 76 0.0 1.0 0.00 0.25 0.10 70 1011.3
20260506195004 58 314 0.0 2.0 0.00 0.27 0.10 70 1011.2
20260506194004 59 354 0.0 1.0 0.00 0.28 0.10 68 1010.9
20260506193005 59 35 0.0 2.0 0.00 0.28 0.10 67 1010.6